Time,TemperatureF,DewpointF,PressureIn,WindDirection,WindDirectionDegrees,WindSpeedMPH,WindSpeedGustMPH,Humidity,HourlyPrecipIn,Conditions,Clouds,dailyrainin,SoftwareType,DateUTC
2013-07-16 00:06:00,68.0,65.0,30.11,North,360,0.0,0.0,89,0.00,,,0.00,weatherlink.com 1.10,2013-07-16 04:06:00,
2013-07-16 00:21:00,68.6,65.0,30.11,North,5,0.0,1.0,87,0.00,,,0.00,weatherlink.com 1.10,2013-07-16 04:21:00,
2013-07-16 00:36:00,69.1,65.0,30.11,North,5,0.0,1.0,86,0.00,,,0.00,weatherlink.com 1.10,2013-07-16 04:36:00,
2013-07-16 00:51:00,68.6,65.0,30.11,North,9,0.0,1.0,87,0.00,,,0.00,weatherlink.com 1.10,2013-07-16 04:51:00,
2013-07-16 01:06:00,68.0,64.0,30.11,North,9,0.0,0.0,88,0.00,,,0.00,weatherlink.com 1.10,2013-07-16 05:06:00,
2013-07-16 01:21:00,67.0,64.0,30.11,North,9,0.0,0.0,90,0.00,,,0.00,weatherlink.com 1.10,2013-07-16 05:21:00,
2013-07-16 01:36:00,66.8,65.0,30.11,North,9,0.0,0.0,92,0.00,,,0.00,weatherlink.com 1.10,2013-07-16 05:36:00,
2013-07-16 01:51:00,65.8,64.0,30.11,North,9,0.0,0.0,93,0.00,,,0.00,weatherlink.com 1.10,2013-07-16 05:51:00,
2013-07-16 02:06:00,65.9,64.0,30.11,North,9,0.0,1.0,93,0.00,,,0.00,weatherlink.com 1.10,2013-07-16 06:06:00,
2013-07-16 02:21:00,65.5,64.0,30.11,North,9,0.0,1.0,94,0.00,,,0.00,weatherlink.com 1.10,2013-07-16 06:21:00,
2013-07-16 02:36:00,65.3,64.0,30.11,North,9,0.0,1.0,94,0.00,,,0.00,weatherlink.com 1.10,2013-07-16 06:36:00,
2013-07-16 02:51:00,65.4,64.0,30.11,North,9,0.0,1.0,94,0.00,,,0.00,weatherlink.com 1.10,2013-07-16 06:51:00,
2013-07-16 03:06:00,65.4,64.0,30.11,NNW,331,2.0,3.0,94,0.00,,,0.00,weatherlink.com 1.10,2013-07-16 07:06:00,
2013-07-16 03:21:00,65.2,64.0,30.11,NNW,331,0.0,0.0,95,0.00,,,0.00,weatherlink.com 1.10,2013-07-16 07:21:00,
2013-07-16 03:36:00,65.5,64.0,30.11,NNW,331,0.0,0.0,94,0.00,,,0.00,weatherlink.com 1.10,2013-07-16 07:36:00,
2013-07-16 03:51:00,65.1,63.0,30.11,NNW,331,0.0,1.0,94,0.00,,,0.00,weatherlink.com 1.10,2013-07-16 07:51:00,
2013-07-16 04:06:00,65.0,64.0,30.11,NNW,331,0.0,0.0,95,0.00,,,0.00,weatherlink.com 1.10,2013-07-16 08:06:00,
2013-07-16 04:21:00,65.0,64.0,30.11,NNW,331,0.0,0.0,95,0.00,,,0.00,weatherlink.com 1.10,2013-07-16 08:21:00,
2013-07-16 04:37:00,64.8,63.0,30.11,NNW,331,0.0,0.0,95,0.00,,,0.00,weatherlink.com 1.10,2013-07-16 08:37:00,
2013-07-16 04:52:00,64.9,64.0,30.11,NW,318,0.0,3.0,95,0.00,,,0.00,weatherlink.com 1.10,2013-07-16 08:52:00,
2013-07-16 05:07:00,64.7,63.0,30.11,NW,318,0.0,0.0,95,0.00,,,0.00,weatherlink.com 1.10,2013-07-16 09:07:00,
2013-07-16 05:22:00,65.0,64.0,30.12,NW,318,0.0,0.0,96,0.00,,,0.00,weatherlink.com 1.10,2013-07-16 09:22:00,
2013-07-16 05:37:00,64.5,63.0,30.12,NW,318,0.0,0.0,96,0.00,,,0.00,weatherlink.com 1.10,2013-07-16 09:37:00,
2013-07-16 05:52:00,65.3,64.0,30.12,NW,318,0.0,0.0,96,0.00,,,0.00,weatherlink.com 1.10,2013-07-16 09:52:00,
2013-07-16 06:07:00,66.3,65.0,30.12,NW,318,0.0,0.0,95,0.00,,,0.00,weatherlink.com 1.10,2013-07-16 10:07:00,
2013-07-16 06:22:00,68.1,66.0,30.12,NW,318,0.0,0.0,92,0.00,,,0.00,weatherlink.com 1.10,2013-07-16 10:22:00,
2013-07-16 06:37:00,68.8,66.0,30.13,NW,318,0.0,0.0,91,0.00,,,0.00,weatherlink.com 1.10,2013-07-16 10:37:00,
2013-07-16 06:52:00,70.4,67.0,30.13,NW,319,0.0,0.0,88,0.00,,,0.00,weatherlink.com 1.10,2013-07-16 10:52:00,
2013-07-16 07:07:00,71.3,67.0,30.13,NNW,329,0.0,1.0,86,0.00,,,0.00,weatherlink.com 1.10,2013-07-16 11:07:00,
2013-07-16 07:22:00,72.7,67.0,30.13,NW,310,1.0,2.0,82,0.00,,,0.00,weatherlink.com 1.10,2013-07-16 11:22:00,
2013-07-16 07:37:00,72.9,66.0,30.13,West,281,0.0,3.0,80,0.00,,,0.00,weatherlink.com 1.10,2013-07-16 11:37:00,
2013-07-16 07:52:00,73.2,67.0,30.14,NNE,30,0.0,7.0,82,0.00,,,0.00,weatherlink.com 1.10,2013-07-16 11:52:00,
2013-07-16 08:07:00,72.3,66.0,30.14,NE,54,0.0,2.0,81,0.00,,,0.00,weatherlink.com 1.10,2013-07-16 12:07:00,
2013-07-16 08:22:00,73.8,67.0,30.14,NNE,21,0.0,2.0,80,0.00,,,0.00,weatherlink.com 1.10,2013-07-16 12:22:00,
2013-07-16 08:37:00,73.0,67.0,30.14,NNE,26,3.0,5.0,80,0.00,,,0.00,weatherlink.com 1.10,2013-07-16 12:37:00,
2013-07-16 08:52:00,72.8,66.0,30.15,NNE,30,1.0,5.0,80,0.00,,,0.00,weatherlink.com 1.10,2013-07-16 12:52:00,
2013-07-16 09:07:00,72.5,66.0,30.15,NNE,12,1.0,7.0,81,0.00,,,0.00,weatherlink.com 1.10,2013-07-16 13:07:00,
2013-07-16 09:22:00,73.8,67.0,30.15,NE,39,0.0,5.0,79,0.00,,,0.00,weatherlink.com 1.10,2013-07-16 13:22:00,
2013-07-16 09:37:00,74.5,67.0,30.15,NNE,25,5.0,8.0,76,0.00,,,0.00,weatherlink.com 1.10,2013-07-16 13:37:00,
2013-07-16 09:52:00,74.2,66.0,30.15,North,355,2.0,7.0,76,0.00,,,0.00,weatherlink.com 1.10,2013-07-16 13:52:00,
2013-07-16 10:07:00,75.2,65.0,30.15,ENE,60,8.0,10.0,70,0.00,,,0.00,weatherlink.com 1.10,2013-07-16 14:07:00,
2013-07-16 10:22:00,75.7,65.0,30.15,NW,325,4.0,6.0,69,0.00,,,0.00,weatherlink.com 1.10,2013-07-16 14:22:00,
2013-07-16 10:37:00,76.0,64.0,30.16,NNW,336,6.0,6.0,67,0.00,,,0.00,weatherlink.com 1.10,2013-07-16 14:37:00,
2013-07-16 10:52:00,75.8,64.0,30.15,ENE,63,8.0,14.0,66,0.00,,,0.00,weatherlink.com 1.10,2013-07-16 14:52:00,
2013-07-16 11:07:00,75.5,64.0,30.16,North,9,0.0,11.0,67,0.00,,,0.00,weatherlink.com 1.10,2013-07-16 15:07:00,
2013-07-16 11:22:00,76.5,64.0,30.16,North,360,2.0,7.0,65,0.00,,,0.00,weatherlink.com 1.10,2013-07-16 15:22:00,
2013-07-16 11:37:00,76.5,64.0,30.15,ENE,57,5.0,8.0,66,0.00,,,0.00,weatherlink.com 1.10,2013-07-16 15:37:00,
2013-07-16 11:52:00,76.0,63.0,30.15,ENE,58,3.0,10.0,65,0.00,,,0.00,weatherlink.com 1.10,2013-07-16 15:52:00,
2013-07-16 12:07:00,76.5,64.0,30.15,NNE,17,1.0,8.0,65,0.00,,,0.00,weatherlink.com 1.10,2013-07-16 16:07:00,
2013-07-16 12:22:00,76.5,64.0,30.15,NE,41,6.0,8.0,65,0.00,,,0.00,weatherlink.com 1.10,2013-07-16 16:22:00,
2013-07-16 12:37:00,76.1,64.0,30.15,NNE,22,2.0,10.0,66,0.00,,,0.00,weatherlink.com 1.10,2013-07-16 16:37:00,
2013-07-16 12:52:00,77.2,65.0,30.15,NE,35,1.0,11.0,65,0.00,,,0.00,weatherlink.com 1.10,2013-07-16 16:52:00,
2013-07-16 13:07:00,77.3,64.0,30.15,North,10,6.0,9.0,64,0.00,,,0.00,weatherlink.com 1.10,2013-07-16 17:07:00,
2013-07-16 13:22:00,77.4,65.0,30.15,North,11,3.0,8.0,65,0.00,,,0.00,weatherlink.com 1.10,2013-07-16 17:22:00,
2013-07-16 13:37:00,77.6,63.0,30.14,NNE,16,1.0,8.0,62,0.00,,,0.00,weatherlink.com 1.10,2013-07-16 17:37:00,
2013-07-16 13:52:00,78.3,64.0,30.14,North,355,4.0,11.0,62,0.00,,,0.00,weatherlink.com 1.10,2013-07-16 17:52:00,
2013-07-16 14:08:00,78.7,64.0,30.14,NNW,328,1.0,9.0,60,0.00,,,0.00,weatherlink.com 1.10,2013-07-16 18:08:00,
2013-07-16 14:23:00,78.7,65.0,30.14,North,10,2.0,7.0,62,0.00,,,0.00,weatherlink.com 1.10,2013-07-16 18:23:00,
2013-07-16 14:38:00,78.7,65.0,30.14,NE,42,0.0,7.0,62,0.00,,,0.00,weatherlink.com 1.10,2013-07-16 18:38:00,
2013-07-16 14:53:00,78.8,64.0,30.14,NE,42,2.0,13.0,60,0.00,,,0.00,weatherlink.com 1.10,2013-07-16 18:53:00,
2013-07-16 15:08:00,78.3,64.0,30.13,North,5,0.0,8.0,61,0.00,,,0.00,weatherlink.com 1.10,2013-07-16 19:08:00,
2013-07-16 15:23:00,78.7,64.0,30.13,NNE,23,2.0,8.0,60,0.00,,,0.00,weatherlink.com 1.10,2013-07-16 19:23:00,
2013-07-16 15:38:00,79.0,63.0,30.14,NE,43,4.0,9.0,59,0.00,,,0.00,weatherlink.com 1.10,2013-07-16 19:38:00,
2013-07-16 15:53:00,78.4,62.0,30.14,North,9,2.0,8.0,58,0.00,,,0.00,weatherlink.com 1.10,2013-07-16 19:53:00,
2013-07-16 16:08:00,78.1,62.0,30.14,North,360,2.0,9.0,59,0.00,,,0.00,weatherlink.com 1.10,2013-07-16 20:08:00,
2013-07-16 16:23:00,78.4,63.0,30.14,NNW,348,2.0,5.0,59,0.00,,,0.00,weatherlink.com 1.10,2013-07-16 20:23:00,
2013-07-16 16:38:00,78.5,62.0,30.13,North,11,1.0,6.0,58,0.00,,,0.00,weatherlink.com 1.10,2013-07-16 20:38:00,
2013-07-16 16:53:00,78.0,62.0,30.13,NNE,17,1.0,10.0,59,0.00,,,0.00,weatherlink.com 1.10,2013-07-16 20:53:00,
2013-07-16 17:08:00,77.9,61.0,30.13,NNE,15,4.0,5.0,56,0.00,,,0.00,weatherlink.com 1.10,2013-07-16 21:08:00,
2013-07-16 17:23:00,77.7,60.0,30.13,ENE,66,1.0,8.0,55,0.00,,,0.00,weatherlink.com 1.10,2013-07-16 21:23:00,
2013-07-16 17:38:00,77.7,60.0,30.13,NE,37,2.0,7.0,54,0.00,,,0.00,weatherlink.com 1.10,2013-07-16 21:38:00,
2013-07-16 17:53:00,77.4,60.0,30.13,NNW,332,0.0,3.0,55,0.00,,,0.00,weatherlink.com 1.10,2013-07-16 21:53:00,
2013-07-16 18:08:00,77.1,60.0,30.13,ENE,60,1.0,4.0,55,0.00,,,0.00,weatherlink.com 1.10,2013-07-16 22:08:00,
2013-07-16 18:23:00,76.8,60.0,30.13,NE,47,0.0,2.0,57,0.00,,,0.00,weatherlink.com 1.10,2013-07-16 22:23:00,
2013-07-16 18:38:00,76.5,60.0,30.13,NE,42,0.0,3.0,57,0.00,,,0.00,weatherlink.com 1.10,2013-07-16 22:38:00,
2013-07-16 18:53:00,75.9,60.0,30.13,NNE,24,0.0,1.0,59,0.00,,,0.00,weatherlink.com 1.10,2013-07-16 22:53:00,
2013-07-16 19:08:00,75.3,60.0,30.14,NNE,26,0.0,1.0,60,0.00,,,0.00,weatherlink.com 1.10,2013-07-16 23:08:00,
2013-07-16 19:23:00,74.7,60.0,30.14,NNE,22,0.0,2.0,61,0.00,,,0.00,weatherlink.com 1.10,2013-07-16 23:23:00,
2013-07-16 19:38:00,73.9,61.0,30.14,NNE,21,0.0,1.0,65,0.00,,,0.00,weatherlink.com 1.10,2013-07-16 23:38:00,
2013-07-16 19:53:00,72.6,61.0,30.14,NNE,21,0.0,1.0,68,0.00,,,0.00,weatherlink.com 1.10,2013-07-16 23:53:00,
2013-07-16 20:08:00,71.6,61.0,30.14,NNE,21,0.0,1.0,69,0.00,,,0.00,weatherlink.com 1.10,2013-07-17 00:08:00,
2013-07-16 20:23:00,69.7,61.0,30.14,NNE,21,0.0,0.0,73,0.00,,,0.00,weatherlink.com 1.10,2013-07-17 00:23:00,
2013-07-16 20:38:00,68.6,60.0,30.15,NNE,21,1.0,2.0,75,0.00,,,0.00,weatherlink.com 1.10,2013-07-17 00:38:00,
2013-07-16 20:53:00,67.7,60.0,30.15,NNW,329,0.0,2.0,77,0.00,,,0.00,weatherlink.com 1.10,2013-07-17 00:53:00,
2013-07-16 21:08:00,67.5,60.0,30.16,NW,311,1.0,3.0,76,0.00,,,0.00,weatherlink.com 1.10,2013-07-17 01:08:00,
2013-07-16 21:23:00,67.3,61.0,30.16,NW,311,0.0,0.0,79,0.00,,,0.00,weatherlink.com 1.10,2013-07-17 01:23:00,
2013-07-16 21:38:00,66.5,62.0,30.15,NW,311,0.0,0.0,85,0.00,,,0.00,weatherlink.com 1.10,2013-07-17 01:38:00,
2013-07-16 21:53:00,65.9,61.0,30.16,NW,311,0.0,0.0,83,0.00,,,0.00,weatherlink.com 1.10,2013-07-17 01:53:00,
2013-07-16 22:08:00,65.4,61.0,30.15,NW,311,0.0,0.0,84,0.00,,,0.00,weatherlink.com 1.10,2013-07-17 02:08:00,
2013-07-16 22:23:00,65.2,61.0,30.15,NW,311,0.0,0.0,85,0.00,,,0.00,weatherlink.com 1.10,2013-07-17 02:23:00,
2013-07-16 22:38:00,65.2,61.0,30.16,NW,311,0.0,0.0,85,0.00,,,0.00,weatherlink.com 1.10,2013-07-17 02:38:00,
2013-07-16 22:53:00,64.3,59.0,30.15,NW,311,0.0,0.0,84,0.00,,,0.00,weatherlink.com 1.10,2013-07-17 02:53:00,
2013-07-16 23:08:00,64.6,60.0,30.15,NW,311,0.0,0.0,85,0.00,,,0.00,weatherlink.com 1.10,2013-07-17 03:08:00,
2013-07-16 23:23:00,64.3,60.0,30.16,NW,311,0.0,0.0,87,0.00,,,0.00,weatherlink.com 1.10,2013-07-17 03:23:00,
2013-07-16 23:53:00,63.6,60.0,30.16,NW,311,0.0,0.0,89,0.00,,,0.00,weatherlink.com 1.10,2013-07-17 03:53:00,